Time,TemperatureF,DewpointF,PressureIn,WindDirection,WindDirectionDegrees,WindSpeedMPH,WindSpeedGustMPH,Humidity,HourlyPrecipIn,Conditions,Clouds,dailyrainin,SoftwareType,DateUTC
2013-04-19 00:01:00,46.2,31.0,28.70,NNW,337,4.9,5.8,56,0.00,,,0.00,Rainwise IP-100,2013-04-19 05:01:00,
2013-04-19 00:06:00,46.0,32.0,28.70,North,360,3.3,8.4,57,0.00,,,0.00,Rainwise IP-100,2013-04-19 05:06:00,
2013-04-19 00:11:00,45.9,32.0,28.70,NNE,22,7.2,10.0,57,0.00,,,0.00,Rainwise IP-100,2013-04-19 05:11:00,
2013-04-19 00:16:00,45.7,32.0,28.70,North,360,2.1,8.2,57,0.00,,,0.00,Rainwise IP-100,2013-04-19 05:16:00,
2013-04-19 00:21:00,45.5,32.0,28.70,North,360,4.4,8.2,58,0.00,,,0.00,Rainwise IP-100,2013-04-19 05:21:00,
2013-04-19 00:26:00,45.5,32.0,28.70,North,360,3.0,6.1,58,0.00,,,0.00,Rainwise IP-100,2013-04-19 05:26:00,
2013-04-19 00:31:00,45.2,32.0,28.70,North,360,2.8,5.1,59,0.00,,,0.00,Rainwise IP-100,2013-04-19 05:31:00,
2013-04-19 00:36:00,44.9,32.0,28.70,North,360,4.4,5.8,59,0.00,,,0.00,Rainwise IP-100,2013-04-19 05:36:00,
2013-04-19 00:41:00,44.7,32.0,28.70,North,360,4.0,4.4,60,0.00,,,0.00,Rainwise IP-100,2013-04-19 05:41:00,
2013-04-19 00:46:00,44.5,32.0,28.70,NW,315,1.6,4.0,61,0.00,,,0.00,Rainwise IP-100,2013-04-19 05:46:00,
2013-04-19 00:51:00,44.2,32.0,28.69,NNW,337,2.8,4.2,62,0.00,,,0.00,Rainwise IP-100,2013-04-19 05:51:00,
2013-04-19 00:56:00,43.9,32.0,28.70,NNW,337,1.4,4.9,62,0.00,,,0.00,Rainwise IP-100,2013-04-19 05:56:00,
2013-04-19 01:01:00,43.7,32.0,28.70,NNW,337,3.3,9.8,62,0.00,,,0.00,Rainwise IP-100,2013-04-19 06:01:00,
2013-04-19 01:06:00,43.6,32.0,28.70,North,360,4.2,6.8,62,0.00,,,0.00,Rainwise IP-100,2013-04-19 06:06:00,
2013-04-19 01:11:00,43.6,32.0,28.70,North,360,1.4,7.5,62,0.00,,,0.00,Rainwise IP-100,2013-04-19 06:11:00,
2013-04-19 01:16:00,43.7,32.0,28.70,North,360,2.3,9.3,62,0.00,,,0.00,Rainwise IP-100,2013-04-19 06:16:00,
2013-04-19 01:21:00,43.7,32.0,28.71,NNE,22,4.0,6.8,62,0.00,,,0.00,Rainwise IP-100,2013-04-19 06:21:00,
2013-04-19 01:26:00,43.7,32.0,28.70,NNE,22,0.0,8.2,61,0.00,,,0.00,Rainwise IP-100,2013-04-19 06:26:00,
2013-04-19 01:31:00,43.7,32.0,28.71,NNW,337,2.1,7.7,61,0.00,,,0.00,Rainwise IP-100,2013-04-19 06:31:00,
2013-04-19 01:36:00,43.7,32.0,28.71,NNE,22,3.3,10.0,62,0.00,,,0.00,Rainwise IP-100,2013-04-19 06:36:00,
2013-04-19 01:41:00,43.6,32.0,28.71,NNE,22,4.7,7.0,62,0.00,,,0.00,Rainwise IP-100,2013-04-19 06:41:00,
2013-04-19 01:46:00,43.5,32.0,28.71,North,360,1.6,6.3,62,0.00,,,0.00,Rainwise IP-100,2013-04-19 06:46:00,
2013-04-19 01:51:00,43.3,32.0,28.71,NNE,22,1.6,5.8,63,0.00,,,0.00,Rainwise IP-100,2013-04-19 06:51:00,
2013-04-19 01:56:00,43.0,32.0,28.72,North,360,1.6,3.3,63,0.00,,,0.00,Rainwise IP-100,2013-04-19 06:56:00,
2013-04-19 02:01:00,42.8,32.0,28.71,NNE,22,0.0,4.4,64,0.00,,,0.00,Rainwise IP-100,2013-04-19 07:01:00,
2013-04-19 02:06:00,42.6,32.0,28.71,North,360,0.0,2.3,64,0.00,,,0.00,Rainwise IP-100,2013-04-19 07:06:00,
2013-04-19 02:11:00,42.4,32.0,28.72,North,360,0.0,3.7,65,0.00,,,0.00,Rainwise IP-100,2013-04-19 07:11:00,
2013-04-19 02:16:00,42.1,32.0,28.72,North,360,1.4,3.3,65,0.00,,,0.00,Rainwise IP-100,2013-04-19 07:16:00,
2013-04-19 02:21:00,41.9,32.0,28.72,North,360,0.0,2.6,66,0.00,,,0.00,Rainwise IP-100,2013-04-19 07:21:00,
2013-04-19 02:26:00,41.7,32.0,28.72,North,360,0.0,1.4,67,0.00,,,0.00,Rainwise IP-100,2013-04-19 07:26:00,
2013-04-19 02:31:00,41.3,31.0,28.72,North,360,0.0,1.4,67,0.00,,,0.00,Rainwise IP-100,2013-04-19 07:31:00,
2013-04-19 02:36:00,41.0,32.0,28.73,North,360,0.0,1.6,68,0.00,,,0.00,Rainwise IP-100,2013-04-19 07:36:00,
2013-04-19 02:41:00,40.9,32.0,28.73,North,360,0.0,1.4,68,0.00,,,0.00,Rainwise IP-100,2013-04-19 07:41:00,
2013-04-19 02:46:00,40.8,32.0,28.72,North,360,0.0,1.4,68,0.00,,,0.00,Rainwise IP-100,2013-04-19 07:46:00,
2013-04-19 02:51:00,40.6,32.0,28.73,North,360,0.0,0.0,68,0.00,,,0.00,Rainwise IP-100,2013-04-19 07:51:00,
2013-04-19 02:56:00,40.4,31.0,28.73,North,360,1.2,1.2,68,0.00,,,0.00,Rainwise IP-100,2013-04-19 07:56:00,
2013-04-19 03:01:00,40.0,32.0,28.73,North,360,1.4,1.9,71,0.00,,,0.00,Rainwise IP-100,2013-04-19 08:01:00,
2013-04-19 03:06:00,39.6,32.0,28.73,North,360,0.0,1.9,73,0.00,,,0.00,Rainwise IP-100,2013-04-19 08:06:00,
2013-04-19 03:11:00,39.1,32.0,28.73,North,360,0.0,1.6,76,0.00,,,0.00,Rainwise IP-100,2013-04-19 08:11:00,
2013-04-19 03:16:00,38.7,32.0,28.74,North,360,0.0,1.9,77,0.00,,,0.00,Rainwise IP-100,2013-04-19 08:16:00,
2013-04-19 03:21:00,38.5,33.0,28.74,North,360,0.0,1.2,78,0.00,,,0.00,Rainwise IP-100,2013-04-19 08:21:00,
2013-04-19 03:26:00,38.2,32.0,28.74,North,360,0.0,1.2,78,0.00,,,0.00,Rainwise IP-100,2013-04-19 08:26:00,
2013-04-19 03:31:00,38.0,32.0,28.74,North,360,0.0,0.0,79,0.00,,,0.00,Rainwise IP-100,2013-04-19 08:31:00,
2013-04-19 03:36:00,37.8,32.0,28.74,North,360,0.0,0.0,79,0.00,,,0.00,Rainwise IP-100,2013-04-19 08:36:00,
2013-04-19 03:41:00,37.6,32.0,28.75,North,360,0.0,0.0,80,0.00,,,0.00,Rainwise IP-100,2013-04-19 08:41:00,
2013-04-19 03:46:00,37.4,32.0,28.74,North,360,0.0,0.0,81,0.00,,,0.00,Rainwise IP-100,2013-04-19 08:46:00,
2013-04-19 03:51:00,37.1,32.0,28.75,North,360,0.0,0.0,81,0.00,,,0.00,Rainwise IP-100,2013-04-19 08:51:00,
2013-04-19 03:56:00,36.9,32.0,28.75,North,360,0.0,0.0,82,0.00,,,0.00,Rainwise IP-100,2013-04-19 08:56:00,
2013-04-19 04:01:00,36.7,32.0,28.76,North,360,0.0,0.0,83,0.00,,,0.00,Rainwise IP-100,2013-04-19 09:01:00,
2013-04-19 04:06:00,36.7,32.0,28.76,North,360,0.0,1.2,84,0.00,,,0.00,Rainwise IP-100,2013-04-19 09:06:00,
2013-04-19 04:11:00,36.5,32.0,28.76,North,360,0.0,1.6,83,0.00,,,0.00,Rainwise IP-100,2013-04-19 09:11:00,
2013-04-19 04:16:00,36.5,32.0,28.76,North,360,0.0,1.6,83,0.00,,,0.00,Rainwise IP-100,2013-04-19 09:16:00,
2013-04-19 04:21:00,36.7,32.0,28.76,North,360,0.0,1.2,83,0.00,,,0.00,Rainwise IP-100,2013-04-19 09:21:00,
2013-04-19 04:26:00,36.7,33.0,28.77,North,360,0.0,0.0,85,0.00,,,0.00,Rainwise IP-100,2013-04-19 09:26:00,
2013-04-19 04:31:00,36.3,32.0,28.77,North,360,0.0,0.0,87,0.00,,,0.00,Rainwise IP-100,2013-04-19 09:31:00,
2013-04-19 04:36:00,35.8,32.0,28.77,North,360,0.0,0.0,88,0.00,,,0.00,Rainwise IP-100,2013-04-19 09:36:00,
2013-04-19 04:41:00,35.5,33.0,28.77,North,360,0.0,1.9,89,0.00,,,0.00,Rainwise IP-100,2013-04-19 09:41:00,
2013-04-19 04:46:00,35.4,32.0,28.77,North,360,0.0,1.9,90,0.00,,,0.00,Rainwise IP-100,2013-04-19 09:46:00,
2013-04-19 04:51:00,35.4,32.0,28.78,North,360,0.0,1.6,89,0.00,,,0.00,Rainwise IP-100,2013-04-19 09:51:00,
2013-04-19 04:56:00,35.4,32.0,28.78,North,360,0.0,1.9,88,0.00,,,0.00,Rainwise IP-100,2013-04-19 09:56:00,
2013-04-19 05:01:00,35.5,32.0,28.78,North,360,0.0,1.9,88,0.00,,,0.00,Rainwise IP-100,2013-04-19 10:01:00,
2013-04-19 05:06:00,35.4,31.0,28.78,North,360,0.0,1.6,87,0.00,,,0.00,Rainwise IP-100,2013-04-19 10:06:00,
2013-04-19 05:11:00,35.6,32.0,28.78,North,360,0.0,1.4,87,0.00,,,0.00,Rainwise IP-100,2013-04-19 10:11:00,
2013-04-19 05:16:00,35.7,32.0,28.79,North,360,0.0,2.1,87,0.00,,,0.00,Rainwise IP-100,2013-04-19 10:16:00,
2013-04-19 05:21:00,35.6,32.0,28.78,North,360,1.9,1.9,87,0.00,,,0.00,Rainwise IP-100,2013-04-19 10:21:00,
2013-04-19 05:26:00,35.6,32.0,28.79,North,360,0.0,2.3,86,0.00,,,0.00,Rainwise IP-100,2013-04-19 10:26:00,
2013-04-19 05:31:00,35.6,32.0,28.78,North,360,1.2,1.6,87,0.00,,,0.00,Rainwise IP-100,2013-04-19 10:31:00,
2013-04-19 05:36:00,35.6,32.0,28.79,North,360,0.0,1.4,87,0.00,,,0.00,Rainwise IP-100,2013-04-19 10:36:00,
2013-04-19 05:41:00,35.4,32.0,28.78,North,360,0.0,1.2,88,0.00,,,0.00,Rainwise IP-100,2013-04-19 10:41:00,
2013-04-19 05:46:00,35.3,32.0,28.79,North,360,1.4,1.4,88,0.00,,,0.00,Rainwise IP-100,2013-04-19 10:46:00,
2013-04-19 05:51:00,35.3,32.0,28.79,North,360,1.4,1.4,89,0.00,,,0.00,Rainwise IP-100,2013-04-19 10:51:00,
2013-04-19 05:56:00,35.3,32.0,28.79,North,360,0.0,1.9,88,0.00,,,0.00,Rainwise IP-100,2013-04-19 10:56:00,
2013-04-19 06:01:00,35.4,32.0,28.80,North,360,0.0,1.9,88,0.00,,,0.00,Rainwise IP-100,2013-04-19 11:01:00,
2013-04-19 06:06:00,35.5,32.0,28.80,North,360,0.0,1.2,88,0.00,,,0.00,Rainwise IP-100,2013-04-19 11:06:00,
2013-04-19 06:11:00,35.3,32.0,28.80,North,360,0.0,1.2,88,0.00,,,0.00,Rainwise IP-100,2013-04-19 11:11:00,
2013-04-19 06:16:00,35.2,32.0,28.79,North,360,0.0,1.4,89,0.00,,,0.00,Rainwise IP-100,2013-04-19 11:16:00,
2013-04-19 06:21:00,35.1,32.0,28.80,North,360,1.6,0.0,89,0.00,,,0.00,Rainwise IP-100,2013-04-19 11:21:00,
2013-04-19 06:26:00,34.8,32.0,28.80,North,360,1.2,1.9,89,0.00,,,0.00,Rainwise IP-100,2013-04-19 11:26:00,
2013-04-19 06:31:00,34.6,32.0,28.80,North,360,1.9,1.9,90,0.00,,,0.00,Rainwise IP-100,2013-04-19 11:31:00,
2013-04-19 06:36:00,34.4,32.0,28.80,North,360,0.0,2.3,90,0.00,,,0.00,Rainwise IP-100,2013-04-19 11:36:00,
2013-04-19 06:41:00,34.3,32.0,28.80,North,360,0.0,2.1,90,0.00,,,0.00,Rainwise IP-100,2013-04-19 11:41:00,
2013-04-19 06:46:00,34.2,32.0,28.80,North,360,0.0,0.0,90,0.00,,,0.00,Rainwise IP-100,2013-04-19 11:46:00,
2013-04-19 06:47:00,34.2,32.0,28.80,North,360,0.0,0.0,90,0.00,,,0.00,Rainwise IP-100,2013-04-19 11:47:00,
2013-04-19 06:52:00,34.3,32.0,28.80,North,360,0.0,1.9,90,0.00,,,0.00,Rainwise IP-100,2013-04-19 11:52:00,
2013-04-19 06:57:00,34.3,32.0,28.80,North,360,0.0,1.2,89,0.00,,,0.00,Rainwise IP-100,2013-04-19 11:57:00,
2013-04-19 07:02:00,34.3,32.0,28.81,North,360,0.0,1.2,89,0.00,,,0.00,Rainwise IP-100,2013-04-19 12:02:00,
2013-04-19 07:07:00,34.1,32.0,28.81,North,360,0.0,0.0,89,0.00,,,0.00,Rainwise IP-100,2013-04-19 12:07:00,
2013-04-19 07:12:00,33.9,32.0,28.81,North,360,0.0,0.0,90,0.00,,,0.00,Rainwise IP-100,2013-04-19 12:12:00,
2013-04-19 07:17:00,33.9,32.0,28.81,North,360,0.0,1.2,90,0.00,,,0.00,Rainwise IP-100,2013-04-19 12:17:00,
2013-04-19 07:22:00,34.1,32.0,28.81,North,360,0.0,0.0,90,0.00,,,0.00,Rainwise IP-100,2013-04-19 12:22:00,
2013-04-19 07:27:00,34.4,32.0,28.81,North,360,0.0,0.0,91,0.00,,,0.00,Rainwise IP-100,2013-04-19 12:27:00,
2013-04-19 07:32:00,34.8,32.0,28.82,North,360,0.0,0.0,90,0.00,,,0.00,Rainwise IP-100,2013-04-19 12:32:00,
2013-04-19 07:37:00,35.3,32.0,28.82,North,360,0.0,0.0,90,0.00,,,0.00,Rainwise IP-100,2013-04-19 12:37:00,
2013-04-19 07:42:00,35.9,33.0,28.82,WNW,292,3.0,3.0,89,0.00,,,0.00,Rainwise IP-100,2013-04-19 12:42:00,
2013-04-19 07:47:00,36.6,33.0,28.82,West,270,1.6,3.7,87,0.00,,,0.00,Rainwise IP-100,2013-04-19 12:47:00,
2013-04-19 07:52:00,37.5,35.0,28.82,WNW,292,0.0,3.7,85,0.00,,,0.00,Rainwise IP-100,2013-04-19 12:52:00,
2013-04-19 07:57:00,38.2,33.0,28.83,WNW,292,1.6,4.2,84,0.00,,,0.00,Rainwise IP-100,2013-04-19 12:57:00,
2013-04-19 08:02:00,38.9,35.0,28.83,West,270,2.8,3.7,83,0.00,,,0.00,Rainwise IP-100,2013-04-19 13:02:00,
2013-04-19 08:07:00,39.4,35.0,28.83,West,270,2.8,5.4,82,0.00,,,0.00,Rainwise IP-100,2013-04-19 13:07:00,
2013-04-19 08:12:00,39.9,35.0,28.83,West,270,4.0,5.4,80,0.00,,,0.00,Rainwise IP-100,2013-04-19 13:12:00,
2013-04-19 08:17:00,40.4,35.0,28.83,West,270,1.6,4.7,79,0.00,,,0.00,Rainwise IP-100,2013-04-19 13:17:00,
2013-04-19 08:22:00,41.0,35.0,28.84,WNW,292,1.9,5.8,78,0.00,,,0.00,Rainwise IP-100,2013-04-19 13:22:00,
2013-04-19 08:27:00,41.6,35.0,28.84,WNW,292,2.1,5.8,75,0.00,,,0.00,Rainwise IP-100,2013-04-19 13:27:00,
2013-04-19 08:32:00,42.3,35.0,28.85,WSW,247,3.7,5.4,74,0.00,,,0.00,Rainwise IP-100,2013-04-19 13:32:00,
2013-04-19 08:37:00,43.0,35.0,28.84,WNW,292,3.0,6.5,72,0.00,,,0.00,Rainwise IP-100,2013-04-19 13:37:00,
2013-04-19 08:42:00,43.8,35.0,28.85,WSW,247,4.4,6.1,69,0.00,,,0.00,Rainwise IP-100,2013-04-19 13:42:00,
2013-04-19 08:47:00,44.5,35.0,28.85,West,270,3.3,6.5,66,0.00,,,0.00,Rainwise IP-100,2013-04-19 13:47:00,
2013-04-19 08:52:00,45.1,33.0,28.85,WNW,292,2.8,7.5,64,0.00,,,0.00,Rainwise IP-100,2013-04-19 13:52:00,
2013-04-19 08:57:00,46.1,33.0,28.85,WNW,292,3.7,8.2,60,0.00,,,0.00,Rainwise IP-100,2013-04-19 13:57:00,
2013-04-19 09:02:00,47.0,32.0,28.85,NNW,337,2.3,9.1,55,0.00,,,0.00,Rainwise IP-100,2013-04-19 14:02:00,
2013-04-19 09:07:00,47.7,31.0,28.86,SSW,202,4.2,8.9,50,0.00,,,0.00,Rainwise IP-100,2013-04-19 14:07:00,
2013-04-19 09:12:00,48.0,29.0,28.86,NNE,22,7.9,12.1,47,0.00,,,0.00,Rainwise IP-100,2013-04-19 14:12:00,
2013-04-19 09:17:00,48.5,28.0,28.86,NNE,22,7.7,13.3,44,0.00,,,0.00,Rainwise IP-100,2013-04-19 14:17:00,
2013-04-19 09:22:00,48.6,28.0,28.86,North,360,5.1,12.8,43,0.00,,,0.00,Rainwise IP-100,2013-04-19 14:22:00,
2013-04-19 09:27:00,49.0,28.0,28.86,NW,315,3.3,8.4,43,0.00,,,0.00,Rainwise IP-100,2013-04-19 14:27:00,
2013-04-19 09:32:00,49.5,28.0,28.86,NNE,22,4.9,12.8,42,0.00,,,0.00,Rainwise IP-100,2013-04-19 14:32:00,
2013-04-19 09:37:00,49.7,26.0,28.86,WNW,292,5.1,11.2,40,0.00,,,0.00,Rainwise IP-100,2013-04-19 14:37:00,
2013-04-19 09:42:00,49.8,26.0,28.86,NW,315,4.4,12.1,39,0.00,,,0.00,Rainwise IP-100,2013-04-19 14:42:00,
2013-04-19 09:47:00,49.7,26.0,28.86,WNW,292,6.1,11.4,39,0.00,,,0.00,Rainwise IP-100,2013-04-19 14:47:00,
2013-04-19 09:52:00,49.8,26.0,28.86,North,360,10.7,11.9,40,0.00,,,0.00,Rainwise IP-100,2013-04-19 14:52:00,
2013-04-19 09:57:00,50.2,26.0,28.86,NNE,22,4.9,12.4,39,0.00,,,0.00,Rainwise IP-100,2013-04-19 14:57:00,
2013-04-19 10:02:00,50.3,26.0,28.87,NNW,337,3.7,12.4,38,0.00,,,0.00,Rainwise IP-100,2013-04-19 15:02:00,
2013-04-19 10:07:00,50.4,26.0,28.87,NNW,337,5.6,15.2,38,0.00,,,0.00,Rainwise IP-100,2013-04-19 15:07:00,
2013-04-19 10:12:00,50.7,26.0,28.87,NNW,337,3.3,11.2,38,0.00,,,0.00,Rainwise IP-100,2013-04-19 15:12:00,
2013-04-19 10:17:00,51.0,26.0,28.86,North,360,1.4,13.3,37,0.00,,,0.00,Rainwise IP-100,2013-04-19 15:17:00,
2013-04-19 10:22:00,51.3,26.0,28.86,West,270,2.6,12.1,37,0.00,,,0.00,Rainwise IP-100,2013-04-19 15:22:00,
2013-04-19 10:27:00,51.5,26.0,28.86,NNE,22,7.0,11.4,37,0.00,,,0.00,Rainwise IP-100,2013-04-19 15:27:00,
2013-04-19 10:32:00,51.8,26.0,28.86,NNW,337,7.0,11.2,36,0.00,,,0.00,Rainwise IP-100,2013-04-19 15:32:00,
2013-04-19 10:37:00,52.0,26.0,28.86,NNW,337,8.9,12.1,36,0.00,,,0.00,Rainwise IP-100,2013-04-19 15:37:00,
2013-04-19 10:42:00,52.2,26.0,28.86,NNW,337,5.6,13.1,35,0.00,,,0.00,Rainwise IP-100,2013-04-19 15:42:00,
2013-04-19 10:47:00,52.5,26.0,28.86,NW,315,5.6,9.1,35,0.00,,,0.00,Rainwise IP-100,2013-04-19 15:47:00,
2013-04-19 10:52:00,52.9,26.0,28.86,North,360,3.7,13.1,34,0.00,,,0.00,Rainwise IP-100,2013-04-19 15:52:00,
2013-04-19 10:57:00,53.3,24.0,28.86,NNW,337,5.1,11.7,32,0.00,,,0.00,Rainwise IP-100,2013-04-19 15:57:00,
2013-04-19 11:02:00,53.6,24.0,28.86,NNW,337,10.0,11.0,31,0.00,,,0.00,Rainwise IP-100,2013-04-19 16:02:00,
2013-04-19 11:07:00,53.9,24.0,28.86,North,360,9.6,14.0,31,0.00,,,0.00,Rainwise IP-100,2013-04-19 16:07:00,
2013-04-19 11:12:00,54.2,24.0,28.86,NNW,337,6.3,17.0,31,0.00,,,0.00,Rainwise IP-100,2013-04-19 16:12:00,
2013-04-19 11:17:00,54.3,24.0,28.86,NNW,337,6.1,12.4,30,0.00,,,0.00,Rainwise IP-100,2013-04-19 16:17:00,
2013-04-19 11:22:00,54.4,24.0,28.86,NW,315,7.0,11.0,30,0.00,,,0.00,Rainwise IP-100,2013-04-19 16:22:00,
2013-04-19 11:27:00,54.6,24.0,28.86,WNW,292,4.7,11.4,30,0.00,,,0.00,Rainwise IP-100,2013-04-19 16:27:00,
2013-04-19 11:32:00,54.5,24.0,28.86,NE,45,4.0,12.1,30,0.00,,,0.00,Rainwise IP-100,2013-04-19 16:32:00,
2013-04-19 11:37:00,54.8,24.0,28.86,NW,315,7.5,14.2,30,0.00,,,0.00,Rainwise IP-100,2013-04-19 16:37:00,
2013-04-19 11:42:00,55.1,24.0,28.86,NNE,22,7.9,11.4,29,0.00,,,0.00,Rainwise IP-100,2013-04-19 16:42:00,
2013-04-19 11:47:00,55.3,24.0,28.86,NNW,337,4.9,12.6,29,0.00,,,0.00,Rainwise IP-100,2013-04-19 16:47:00,
2013-04-19 11:52:00,55.7,24.0,28.86,NNW,337,4.9,11.4,29,0.00,,,0.00,Rainwise IP-100,2013-04-19 16:52:00,
2013-04-19 11:57:00,55.9,24.0,28.86,NNE,22,4.0,15.4,29,0.00,,,0.00,Rainwise IP-100,2013-04-19 16:57:00,
2013-04-19 12:02:00,56.2,24.0,28.86,WNW,292,2.3,10.5,29,0.00,,,0.00,Rainwise IP-100,2013-04-19 17:02:00,
2013-04-19 12:07:00,56.2,24.0,28.86,West,270,11.7,11.9,28,0.00,,,0.00,Rainwise IP-100,2013-04-19 17:07:00,
2013-04-19 12:12:00,56.1,24.0,28.86,North,360,8.9,14.9,28,0.00,,,0.00,Rainwise IP-100,2013-04-19 17:12:00,
2013-04-19 12:17:00,56.2,24.0,28.86,North,360,6.5,11.7,28,0.00,,,0.00,Rainwise IP-100,2013-04-19 17:17:00,
2013-04-19 12:22:00,56.4,24.0,28.85,NNE,22,5.6,13.3,28,0.00,,,0.00,Rainwise IP-100,2013-04-19 17:22:00,
2013-04-19 12:27:00,56.5,24.0,28.86,NW,315,6.8,10.0,28,0.00,,,0.00,Rainwise IP-100,2013-04-19 17:27:00,
2013-04-19 12:32:00,56.9,24.0,28.85,North,360,0.0,10.7,28,0.00,,,0.00,Rainwise IP-100,2013-04-19 17:32:00,
2013-04-19 12:37:00,57.4,24.0,28.85,North,360,8.4,12.4,28,0.00,,,0.00,Rainwise IP-100,2013-04-19 17:37:00,
2013-04-19 12:42:00,57.5,24.0,28.85,West,270,4.9,12.6,28,0.00,,,0.00,Rainwise IP-100,2013-04-19 17:42:00,
2013-04-19 12:47:00,57.5,24.0,28.84,West,270,8.4,11.4,28,0.00,,,0.00,Rainwise IP-100,2013-04-19 17:47:00,
2013-04-19 12:52:00,57.4,24.0,28.84,West,270,3.3,12.6,28,0.00,,,0.00,Rainwise IP-100,2013-04-19 17:52:00,
2013-04-19 12:57:00,57.2,26.0,28.84,NW,315,9.3,9.3,29,0.00,,,0.00,Rainwise IP-100,2013-04-19 17:57:00,
2013-04-19 13:02:00,57.4,26.0,28.84,North,360,1.9,10.5,29,0.00,,,0.00,Rainwise IP-100,2013-04-19 18:02:00,
2013-04-19 13:07:00,58.1,26.0,28.83,North,360,4.4,8.2,29,0.00,,,0.00,Rainwise IP-100,2013-04-19 18:07:00,
2013-04-19 13:12:00,58.6,28.0,28.83,West,270,0.0,9.6,29,0.00,,,0.00,Rainwise IP-100,2013-04-19 18:12:00,
2013-04-19 13:17:00,58.7,26.0,28.83,NW,315,7.7,15.2,28,0.00,,,0.00,Rainwise IP-100,2013-04-19 18:17:00,
2013-04-19 13:22:00,58.7,26.0,28.83,NNW,337,7.0,11.0,28,0.00,,,0.00,Rainwise IP-100,2013-04-19 18:22:00,
2013-04-19 13:27:00,59.0,26.0,28.83,NNE,22,6.1,7.9,28,0.00,,,0.00,Rainwise IP-100,2013-04-19 18:27:00,
2013-04-19 13:32:00,59.2,26.0,28.83,NW,315,0.0,10.5,27,0.00,,,0.00,Rainwise IP-100,2013-04-19 18:32:00,
2013-04-19 13:37:00,59.6,26.0,28.82,WNW,292,3.7,11.9,28,0.00,,,0.00,Rainwise IP-100,2013-04-19 18:37:00,
2013-04-19 13:42:00,59.9,28.0,28.82,NNW,337,3.0,9.1,28,0.00,,,0.00,Rainwise IP-100,2013-04-19 18:42:00,
2013-04-19 13:47:00,59.9,28.0,28.82,NNE,22,7.2,14.0,28,0.00,,,0.00,Rainwise IP-100,2013-04-19 18:47:00,
2013-04-19 13:52:00,59.7,26.0,28.82,WSW,247,7.0,13.3,27,0.00,,,0.00,Rainwise IP-100,2013-04-19 18:52:00,
2013-04-19 13:57:00,59.5,26.0,28.82,North,360,9.3,10.5,27,0.00,,,0.00,Rainwise IP-100,2013-04-19 18:57:00,
2013-04-19 14:02:00,59.6,26.0,28.82,WNW,292,7.5,12.1,27,0.00,,,0.00,Rainwise IP-100,2013-04-19 19:02:00,
2013-04-19 14:07:00,60.0,26.0,28.81,West,270,6.8,11.2,27,0.00,,,0.00,Rainwise IP-100,2013-04-19 19:07:00,
2013-04-19 14:12:00,60.1,26.0,28.81,West,270,4.4,9.1,27,0.00,,,0.00,Rainwise IP-100,2013-04-19 19:12:00,
2013-04-19 14:17:00,60.2,26.0,28.81,NNW,337,2.3,8.9,27,0.00,,,0.00,Rainwise IP-100,2013-04-19 19:17:00,
2013-04-19 14:22:00,60.2,26.0,28.80,NNE,22,6.5,13.5,27,0.00,,,0.00,Rainwise IP-100,2013-04-19 19:22:00,
2013-04-19 14:27:00,60.5,26.0,28.80,WNW,292,2.1,15.4,27,0.00,,,0.00,Rainwise IP-100,2013-04-19 19:27:00,
2013-04-19 14:32:00,60.8,28.0,28.80,NNE,22,1.6,10.7,27,0.00,,,0.00,Rainwise IP-100,2013-04-19 19:32:00,
2013-04-19 14:37:00,61.2,28.0,28.80,NNW,337,6.5,13.1,27,0.00,,,0.00,Rainwise IP-100,2013-04-19 19:37:00,
2013-04-19 14:42:00,61.4,28.0,28.79,WNW,292,1.4,10.0,27,0.00,,,0.00,Rainwise IP-100,2013-04-19 19:42:00,
2013-04-19 14:47:00,61.8,28.0,28.79,NW,315,5.8,6.8,27,0.00,,,0.00,Rainwise IP-100,2013-04-19 19:47:00,
2013-04-19 14:52:00,62.1,28.0,28.79,WNW,292,2.3,9.8,26,0.00,,,0.00,Rainwise IP-100,2013-04-19 19:52:00,
2013-04-19 14:57:00,62.1,28.0,28.79,NNW,337,0.0,8.9,26,0.00,,,0.00,Rainwise IP-100,2013-04-19 19:57:00,
2013-04-19 15:02:00,62.5,28.0,28.78,NW,315,8.4,14.2,26,0.00,,,0.00,Rainwise IP-100,2013-04-19 20:02:00,
2013-04-19 15:07:00,62.4,26.0,28.78,NE,45,6.5,11.4,25,0.00,,,0.00,Rainwise IP-100,2013-04-19 20:07:00,
2013-04-19 15:12:00,62.4,26.0,28.78,NNW,337,4.7,10.5,25,0.00,,,0.00,Rainwise IP-100,2013-04-19 20:12:00,
2013-04-19 15:17:00,62.8,28.0,28.78,North,360,4.0,11.0,25,0.00,,,0.00,Rainwise IP-100,2013-04-19 20:17:00,
2013-04-19 15:22:00,62.8,28.0,28.77,WNW,292,2.8,7.9,25,0.00,,,0.00,Rainwise IP-100,2013-04-19 20:22:00,
2013-04-19 15:27:00,62.9,26.0,28.77,NNE,22,3.0,7.2,24,0.00,,,0.00,Rainwise IP-100,2013-04-19 20:27:00,
2013-04-19 15:32:00,63.4,28.0,28.77,West,270,2.6,12.1,25,0.00,,,0.00,Rainwise IP-100,2013-04-19 20:32:00,
2013-04-19 15:37:00,63.3,28.0,28.76,WSW,247,4.2,7.0,25,0.00,,,0.00,Rainwise IP-100,2013-04-19 20:37:00,
2013-04-19 15:42:00,63.2,26.0,28.76,North,360,5.6,8.2,24,0.00,,,0.00,Rainwise IP-100,2013-04-19 20:42:00,
2013-04-19 15:47:00,63.9,26.0,28.76,NNE,22,4.0,8.6,24,0.00,,,0.00,Rainwise IP-100,2013-04-19 20:47:00,
2013-04-19 15:52:00,64.4,28.0,28.75,NNE,22,4.2,10.7,24,0.00,,,0.00,Rainwise IP-100,2013-04-19 20:52:00,
2013-04-19 15:57:00,64.4,28.0,28.75,NNE,22,7.7,11.0,24,0.00,,,0.00,Rainwise IP-100,2013-04-19 20:57:00,
2013-04-19 16:02:00,64.3,26.0,28.75,North,360,2.6,11.0,23,0.00,,,0.00,Rainwise IP-100,2013-04-19 21:02:00,
2013-04-19 16:07:00,64.5,26.0,28.74,WSW,247,3.7,8.6,23,0.00,,,0.00,Rainwise IP-100,2013-04-19 21:07:00,
2013-04-19 16:12:00,64.6,26.0,28.75,WNW,292,1.4,13.5,23,0.00,,,0.00,Rainwise IP-100,2013-04-19 21:12:00,
2013-04-19 16:17:00,64.1,26.0,28.74,WSW,247,1.4,7.2,23,0.00,,,0.00,Rainwise IP-100,2013-04-19 21:17:00,
2013-04-19 16:22:00,64.2,26.0,28.74,WSW,247,6.5,7.0,23,0.00,,,0.00,Rainwise IP-100,2013-04-19 21:22:00,
2013-04-19 16:27:00,64.5,26.0,28.74,NE,45,5.1,8.2,23,0.00,,,0.00,Rainwise IP-100,2013-04-19 21:27:00,
2013-04-19 16:32:00,64.6,24.0,28.73,NNE,22,4.0,6.5,22,0.00,,,0.00,Rainwise IP-100,2013-04-19 21:32:00,
2013-04-19 16:37:00,65.2,26.0,28.73,SSW,202,4.2,5.1,22,0.00,,,0.00,Rainwise IP-100,2013-04-19 21:37:00,
2013-04-19 16:42:00,65.0,26.0,28.73,SSW,202,5.4,7.2,22,0.00,,,0.00,Rainwise IP-100,2013-04-19 21:42:00,
2013-04-19 16:47:00,64.4,26.0,28.73,WSW,247,4.4,10.0,23,0.00,,,0.00,Rainwise IP-100,2013-04-19 21:47:00,
2013-04-19 16:52:00,64.4,24.0,28.72,SSW,202,0.0,8.2,22,0.00,,,0.00,Rainwise IP-100,2013-04-19 21:52:00,
2013-04-19 16:57:00,64.8,26.0,28.72,SE,135,1.9,8.4,22,0.00,,,0.00,Rainwise IP-100,2013-04-19 21:57:00,
2013-04-19 17:02:00,65.2,26.0,28.72,WSW,247,5.6,6.5,22,0.00,,,0.00,Rainwise IP-100,2013-04-19 22:02:00,
2013-04-19 17:07:00,65.4,26.0,28.72,WNW,292,5.1,8.9,22,0.00,,,0.00,Rainwise IP-100,2013-04-19 22:07:00,
2013-04-19 17:12:00,65.4,26.0,28.71,NNW,337,0.0,8.6,22,0.00,,,0.00,Rainwise IP-100,2013-04-19 22:12:00,
2013-04-19 17:17:00,65.5,26.0,28.72,West,270,4.2,6.8,22,0.00,,,0.00,Rainwise IP-100,2013-04-19 22:17:00,
2013-04-19 17:22:00,65.9,26.0,28.71,WNW,292,1.2,5.8,22,0.00,,,0.00,Rainwise IP-100,2013-04-19 22:22:00,
2013-04-19 17:27:00,66.1,24.0,28.71,NE,45,1.2,4.2,21,0.00,,,0.00,Rainwise IP-100,2013-04-19 22:27:00,
2013-04-19 17:32:00,65.4,24.0,28.71,SSE,157,1.6,6.8,21,0.00,,,0.00,Rainwise IP-100,2013-04-19 22:32:00,
2013-04-19 17:37:00,65.5,24.0,28.71,WNW,292,6.1,6.5,21,0.00,,,0.00,Rainwise IP-100,2013-04-19 22:37:00,
2013-04-19 17:42:00,66.2,26.0,28.71,NNW,337,2.3,8.9,22,0.00,,,0.00,Rainwise IP-100,2013-04-19 22:42:00,
2013-04-19 17:47:00,66.4,26.0,28.71,West,270,5.4,5.4,21,0.00,,,0.00,Rainwise IP-100,2013-04-19 22:47:00,
2013-04-19 17:52:00,66.3,26.0,28.71,SSW,202,1.9,9.8,21,0.00,,,0.00,Rainwise IP-100,2013-04-19 22:52:00,
2013-04-19 17:57:00,65.7,24.0,28.70,West,270,4.2,7.9,21,0.00,,,0.00,Rainwise IP-100,2013-04-19 22:57:00,
2013-04-19 18:02:00,65.4,24.0,28.70,WNW,292,1.9,8.4,21,0.00,,,0.00,Rainwise IP-100,2013-04-19 23:02:00,
2013-04-19 18:07:00,65.7,24.0,28.71,WSW,247,4.0,6.1,21,0.00,,,0.00,Rainwise IP-100,2013-04-19 23:07:00,
2013-04-19 18:12:00,65.8,24.0,28.70,West,270,5.6,7.9,21,0.00,,,0.00,Rainwise IP-100,2013-04-19 23:12:00,
2013-04-19 18:17:00,65.8,24.0,28.70,WSW,247,4.9,6.1,21,0.00,,,0.00,Rainwise IP-100,2013-04-19 23:17:00,
2013-04-19 18:22:00,65.3,24.0,28.70,West,270,1.9,7.2,21,0.00,,,0.00,Rainwise IP-100,2013-04-19 23:22:00,
2013-04-19 18:27:00,65.1,24.0,28.70,West,270,3.5,4.4,21,0.00,,,0.00,Rainwise IP-100,2013-04-19 23:27:00,
2013-04-19 18:32:00,65.5,24.0,28.70,WSW,247,2.8,5.8,21,0.00,,,0.00,Rainwise IP-100,2013-04-19 23:32:00,
2013-04-19 18:37:00,65.4,24.0,28.71,WSW,247,0.0,5.6,21,0.00,,,0.00,Rainwise IP-100,2013-04-19 23:37:00,
2013-04-19 18:42:00,65.2,24.0,28.70,WNW,292,1.2,7.5,21,0.00,,,0.00,Rainwise IP-100,2013-04-19 23:42:00,
2013-04-19 18:47:00,64.9,24.0,28.70,West,270,4.2,5.6,21,0.00,,,0.00,Rainwise IP-100,2013-04-19 23:47:00,
2013-04-19 18:52:00,64.5,24.0,28.70,West,270,4.7,4.7,21,0.00,,,0.00,Rainwise IP-100,2013-04-19 23:52:00,
2013-04-19 18:57:00,64.6,24.0,28.70,SSE,157,1.6,4.9,21,0.00,,,0.00,Rainwise IP-100,2013-04-19 23:57:00,
2013-04-19 19:02:00,64.6,24.0,28.70,WSW,247,2.8,2.8,21,0.00,,,0.00,Rainwise IP-100,2013-04-20 00:02:00,
2013-04-19 19:07:00,64.7,24.0,28.70,WSW,247,1.4,4.0,22,0.00,,,0.00,Rainwise IP-100,2013-04-20 00:07:00,
2013-04-19 19:12:00,65.3,26.0,28.70,West,270,0.0,2.1,22,0.00,,,0.00,Rainwise IP-100,2013-04-20 00:12:00,
2013-04-19 19:17:00,65.8,24.0,28.70,NNW,337,0.0,3.5,21,0.00,,,0.00,Rainwise IP-100,2013-04-20 00:17:00,
2013-04-19 19:22:00,65.7,24.0,28.70,WNW,292,1.9,4.4,21,0.00,,,0.00,Rainwise IP-100,2013-04-20 00:22:00,
2013-04-19 19:27:00,65.2,26.0,28.70,WNW,292,0.0,2.8,22,0.00,,,0.00,Rainwise IP-100,2013-04-20 00:27:00,
2013-04-19 19:32:00,65.1,26.0,28.70,WNW,292,0.0,0.0,23,0.00,,,0.00,Rainwise IP-100,2013-04-20 00:32:00,
2013-04-19 19:37:00,64.9,29.0,28.70,WNW,292,0.0,0.0,26,0.00,,,0.00,Rainwise IP-100,2013-04-20 00:37:00,
2013-04-19 19:42:00,64.8,32.0,28.70,WNW,292,0.0,0.0,29,0.00,,,0.00,Rainwise IP-100,2013-04-20 00:42:00,
2013-04-19 19:47:00,64.6,35.0,28.70,ENE,67,0.0,0.0,33,0.00,,,0.00,Rainwise IP-100,2013-04-20 00:47:00,
2013-04-19 19:52:00,64.1,37.0,28.70,ENE,67,0.0,0.0,36,0.00,,,0.00,Rainwise IP-100,2013-04-20 00:52:00,
2013-04-19 19:57:00,63.3,37.0,28.70,ENE,67,0.0,0.0,38,0.00,,,0.00,Rainwise IP-100,2013-04-20 00:57:00,
2013-04-19 20:02:00,62.2,37.0,28.70,ENE,67,0.0,0.0,39,0.00,,,0.00,Rainwise IP-100,2013-04-20 01:02:00,
2013-04-19 20:07:00,60.9,38.0,28.70,ENE,67,0.0,0.0,42,0.00,,,0.00,Rainwise IP-100,2013-04-20 01:07:00,
2013-04-19 20:12:00,59.3,37.0,28.70,ENE,67,0.0,0.0,44,0.00,,,0.00,Rainwise IP-100,2013-04-20 01:12:00,
2013-04-19 20:17:00,57.7,38.0,28.70,ENE,67,0.0,0.0,47,0.00,,,0.00,Rainwise IP-100,2013-04-20 01:17:00,
2013-04-19 20:22:00,56.3,38.0,28.70,ENE,67,0.0,0.0,50,0.00,,,0.00,Rainwise IP-100,2013-04-20 01:22:00,
2013-04-19 20:27:00,54.9,38.0,28.70,ENE,67,0.0,0.0,53,0.00,,,0.00,Rainwise IP-100,2013-04-20 01:27:00,
2013-04-19 20:32:00,53.6,38.0,28.70,ENE,67,0.0,0.0,56,0.00,,,0.00,Rainwise IP-100,2013-04-20 01:32:00,
2013-04-19 20:37:00,52.4,38.0,28.71,ENE,67,0.0,0.0,59,0.00,,,0.00,Rainwise IP-100,2013-04-20 01:37:00,
2013-04-19 20:42:00,51.2,38.0,28.71,ENE,67,0.0,0.0,60,0.00,,,0.00,Rainwise IP-100,2013-04-20 01:42:00,
2013-04-19 20:47:00,50.2,38.0,28.71,ENE,67,0.0,0.0,63,0.00,,,0.00,Rainwise IP-100,2013-04-20 01:47:00,
2013-04-19 20:52:00,49.4,38.0,28.71,ENE,67,0.0,0.0,66,0.00,,,0.00,Rainwise IP-100,2013-04-20 01:52:00,
2013-04-19 20:57:00,48.8,38.0,28.71,ENE,67,0.0,0.0,67,0.00,,,0.00,Rainwise IP-100,2013-04-20 01:57:00,
2013-04-19 21:02:00,48.3,38.0,28.72,ENE,67,0.0,0.0,68,0.00,,,0.00,Rainwise IP-100,2013-04-20 02:02:00,
2013-04-19 21:07:00,47.8,38.0,28.72,ENE,67,0.0,0.0,69,0.00,,,0.00,Rainwise IP-100,2013-04-20 02:07:00,
2013-04-19 21:12:00,47.4,38.0,28.72,ENE,67,0.0,0.0,69,0.00,,,0.00,Rainwise IP-100,2013-04-20 02:12:00,
2013-04-19 21:17:00,47.1,37.0,28.72,ENE,67,0.0,0.0,69,0.00,,,0.00,Rainwise IP-100,2013-04-20 02:17:00,
2013-04-19 21:22:00,47.0,38.0,28.72,ENE,67,0.0,0.0,71,0.00,,,0.00,Rainwise IP-100,2013-04-20 02:22:00,
2013-04-19 21:27:00,46.7,38.0,28.72,ENE,67,0.0,0.0,72,0.00,,,0.00,Rainwise IP-100,2013-04-20 02:27:00,
2013-04-19 21:32:00,46.6,38.0,28.72,ENE,67,0.0,0.0,73,0.00,,,0.00,Rainwise IP-100,2013-04-20 02:32:00,
2013-04-19 21:37:00,46.6,38.0,28.72,ENE,67,0.0,0.0,72,0.00,,,0.00,Rainwise IP-100,2013-04-20 02:37:00,
2013-04-19 21:42:00,46.6,37.0,28.72,ENE,67,0.0,0.0,69,0.00,,,0.00,Rainwise IP-100,2013-04-20 02:42:00,
2013-04-19 21:47:00,47.1,36.0,28.72,ENE,67,0.0,0.0,66,0.00,,,0.00,Rainwise IP-100,2013-04-20 02:47:00,
2013-04-19 21:52:00,47.4,36.0,28.72,ENE,67,0.0,1.2,64,0.00,,,0.00,Rainwise IP-100,2013-04-20 02:52:00,
2013-04-19 21:57:00,48.9,36.0,28.72,ENE,67,0.0,1.4,59,0.00,,,0.00,Rainwise IP-100,2013-04-20 02:57:00,
2013-04-19 22:02:00,50.6,35.0,28.72,ENE,67,0.0,1.6,53,0.00,,,0.00,Rainwise IP-100,2013-04-20 03:02:00,
2013-04-19 22:07:00,51.0,33.0,28.73,ENE,67,0.0,1.4,50,0.00,,,0.00,Rainwise IP-100,2013-04-20 03:07:00,
2013-04-19 22:12:00,51.1,32.0,28.72,ENE,67,0.0,1.2,48,0.00,,,0.00,Rainwise IP-100,2013-04-20 03:12:00,
2013-04-19 22:17:00,51.1,32.0,28.73,ENE,67,0.0,1.6,48,0.00,,,0.00,Rainwise IP-100,2013-04-20 03:17:00,
2013-04-19 22:22:00,50.8,32.0,28.73,ENE,67,0.0,1.6,48,0.00,,,0.00,Rainwise IP-100,2013-04-20 03:22:00,
2013-04-19 22:27:00,50.7,32.0,28.73,ENE,67,2.1,2.1,48,0.00,,,0.00,Rainwise IP-100,2013-04-20 03:27:00,
2013-04-19 22:32:00,51.0,31.0,28.73,ENE,67,1.4,3.0,46,0.00,,,0.00,Rainwise IP-100,2013-04-20 03:32:00,
2013-04-19 22:37:00,51.0,31.0,28.73,ENE,67,1.4,1.9,45,0.00,,,0.00,Rainwise IP-100,2013-04-20 03:37:00,
2013-04-19 22:42:00,50.9,31.0,28.73,East,90,1.2,3.0,45,0.00,,,0.00,Rainwise IP-100,2013-04-20 03:42:00,
2013-04-19 22:44:00,51.0,31.0,28.73,East,90,2.1,3.0,45,0.00,,,0.00,Rainwise IP-100,2013-04-20 03:44:00,
2013-04-19 22:47:00,51.2,31.0,28.73,East,90,0.0,3.5,44,0.00,,,0.00,Rainwise IP-100,2013-04-20 03:47:00,
2013-04-19 22:52:00,51.3,29.0,28.73,East,90,3.7,4.7,43,0.00,,,0.00,Rainwise IP-100,2013-04-20 03:52:00,
2013-04-19 22:57:00,51.4,29.0,28.73,East,90,2.6,3.7,43,0.00,,,0.00,Rainwise IP-100,2013-04-20 03:57:00,
2013-04-19 23:01:00,51.6,29.0,28.73,ESE,112,2.1,3.5,42,0.00,,,0.00,Rainwise IP-100,2013-04-20 04:01:00,
2013-04-19 23:06:00,51.6,29.0,28.74,ESE,112,1.6,4.4,42,0.00,,,0.00,Rainwise IP-100,2013-04-20 04:06:00,
2013-04-19 23:11:00,51.5,29.0,28.74,East,90,3.3,3.7,42,0.00,,,0.00,Rainwise IP-100,2013-04-20 04:11:00,
2013-04-19 23:16:00,51.5,29.0,28.74,East,90,0.0,4.7,41,0.00,,,0.00,Rainwise IP-100,2013-04-20 04:16:00,
2013-04-19 23:21:00,51.5,29.0,28.73,ESE,112,2.6,4.0,41,0.00,,,0.00,Rainwise IP-100,2013-04-20 04:21:00,
2013-04-19 23:26:00,51.5,29.0,28.74,East,90,1.2,4.7,41,0.00,,,0.00,Rainwise IP-100,2013-04-20 04:26:00,
2013-04-19 23:31:00,51.4,29.0,28.74,ENE,67,2.6,5.4,41,0.00,,,0.00,Rainwise IP-100,2013-04-20 04:31:00,
2013-04-19 23:36:00,51.2,29.0,28.73,SE,135,1.6,3.7,41,0.00,,,0.00,Rainwise IP-100,2013-04-20 04:36:00,
2013-04-19 23:41:00,51.0,29.0,28.73,ESE,112,1.4,4.0,41,0.00,,,0.00,Rainwise IP-100,2013-04-20 04:41:00,
2013-04-19 23:46:00,50.7,29.0,28.73,ESE,112,1.4,5.1,42,0.00,,,0.00,Rainwise IP-100,2013-04-20 04:46:00,
2013-04-19 23:51:00,50.5,29.0,28.72,East,90,1.2,4.7,42,0.00,,,0.00,Rainwise IP-100,2013-04-20 04:51:00,
2013-04-19 23:56:00,50.4,29.0,28.72,East,90,2.3,7.0,42,0.00,,,0.00,Rainwise IP-100,2013-04-20 04:56:00,